Location: Peterborough
(44.3091°N, 78.3197°W)
Time: 00:13:33
(UTC-05:00)

A-11 Canister half - Pass Details

Date: 10 December 2023
Orbit: 1512 x 1687 km, 47.2° (Epoch: 24 February)

Event Time Altitude Azimuth Distance (km) Brightness Sun altitude
Exits shadow 05:14:15 39° 270° (W) 2,303 9.4 -24.8°
Maximum altitude 05:17:51 56° 216° (SW) 1,924 9.3 -24.1°
Drops below altitude 10° 05:27:39 10° 142° (SE) 3,943 11.8 -22.4°
Sets 05:30:54 0° 138° (SE) 4,931 12.5 -21.9°
